Location: Passo di Treia
(43.2833°N, 13.3333°E)
Time: 11:53:49
(UTC+00:00)

Okean 1 - Pass Details

Date: 09 December 2019
Orbit: 540 x 554 km, 82.5° (Epoch: 25 January)

Event Time Altitude Azimuth Distance (km) Brightness Sun altitude
Rises 17:13:15 0° 172° (S) 2,701 6.9 -17.9°
Reaches altitude 10° 17:15:27 10° 167° (SSE) 1,811 6.0 -18.3°
Enters shadow 17:19:08 46° 101° (E) 742 3.5 -19.0°
